Weather History for Spartanburg, SC

Change the Weather History Date:

Friday, April 20, 2012

  Actual Average (KGSP) Record (KGSP)
Temperature  
Mean Temperature 62 °F 62 °F  
Max Temperature 71 °F 74 °F 94 °F (1917)
Min Temperature 53 °F 49 °F 25 °F (1983)
Degree Days  
Heating Degree Days 3 5  
Month to date heating degree days 134  
Since 1 July heating degree days 2967  
Cooling Degree Days 0 2  
Month to date cooling degree days 21  
Year to date cooling degree days 29  
Growing Degree Days 12 (Base 50)    
Moisture  
Dew Point 58 °F    
Average Humidity 88    
Maximum Humidity 100    
Minimum Humidity 64    
Precipitation  
Precipitation 0.00 in 0.11 in 1.91 in (1920)
Month to date precipitation 2.23  
Year to date precipitation 14.54  
Snow  
Snow 0.00 in 0.00 in T in (1901)
Month to date snowfall 0.0  
Since 1 July snowfall 4.7  
Snow Depth -    
Sea Level Pressure  
Sea Level Pressure 29.96 in    
Wind  
Wind Speed 1 mph (SSE)    
Max Wind Speed 7 mph    
Max Gust Speed -    
Visibility 8 miles    
Events      
T = Trace of Precipitation, MM = Missing Value Source: NWS Daily Summary

Daily Weather History Graph

Daily Weather History Graph

Search for Another Location

Airport:

Trip Planner

Search our weather history database for the weather conditions in past years. The results will help you decide how hot, cold, wet, or windy it might be!

Date:

Astronomy

Apr. 20, 2012 Rise Set
Actual Time 6:49 AM EDT 8:04 PM EDT
Civil Twilight 6:22 AM EDT 8:31 PM EDT
Nautical Twilight 5:51 AM EDT 9:02 PM EDT
Astronomical Twilight 5:18 AM EDT 9:35 PM EDT
Moon 6:11 AM EDT (4/20) 7:47 PM EDT (4/20)
Length of Visible Light 14h 08m
Length of Day
13h 15m
Waning Crescent, 0% of the Moon is Illuminated
Apr 20
Waning Crescent
Apr 21
New
Apr 29
First Quarter
May 5
Full
May 12
Last Quarter

Hourly Weather History & Observations

Time (EDT) Temp. Dew Point Humidity Pressure Visibility Wind Dir Wind Speed Gust Speed Precip Events Conditions
12:15 AM 55.4 °F 55.4 °F 100% 30.05 in 5.0 mi Calm Calm - N/A   Clear
12:35 AM 55.4 °F 55.4 °F 100% 30.04 in 4.0 mi Calm Calm - N/A   Scattered Clouds
12:55 AM 53.6 °F 53.6 °F 100% 30.03 in 4.0 mi Calm Calm - N/A   Clear
1:15 AM 53.6 °F 53.6 °F 100% 30.03 in 4.0 mi Calm Calm - N/A   Clear
1:35 AM 53.6 °F 53.6 °F 100% 30.02 in 4.0 mi Calm Calm - N/A   Clear
1:55 AM 53.6 °F 53.6 °F 100% 30.02 in 4.0 mi Calm Calm - N/A   Clear
2:15 AM 53.6 °F 53.6 °F 100% 30.01 in 3.0 mi NNE 3.5 mph - N/A   Scattered Clouds
2:35 AM 55.4 °F 55.4 °F 100% 30.01 in 3.0 mi Calm Calm - N/A   Mostly Cloudy
2:55 AM 55.4 °F 55.4 °F 100% 30.01 in 5.0 mi Calm Calm - N/A   Scattered Clouds
3:15 AM 53.6 °F 53.6 °F 100% 30.00 in 5.0 mi NNE 3.5 mph - N/A   Clear
3:35 AM 53.6 °F 53.6 °F 100% 30.00 in 5.0 mi NNE 3.5 mph - N/A   Clear
3:55 AM 53.6 °F 53.6 °F 100% 30.00 in 4.0 mi Calm Calm - N/A   Mostly Cloudy
4:15 AM 55.4 °F 55.4 °F 100% 29.99 in 5.0 mi Calm Calm - N/A   Overcast
4:35 AM 55.4 °F 55.4 °F 100% 29.99 in 4.0 mi Calm Calm - N/A   Overcast
4:55 AM 55.4 °F 55.4 °F 100% 29.98 in 4.0 mi Calm Calm - N/A   Overcast
5:15 AM 55.4 °F 55.4 °F 100% 29.98 in 5.0 mi Calm Calm - N/A   Overcast
6:15 AM 55.4 °F 55.4 °F 100% 29.97 in 5.0 mi NNE 3.5 mph - N/A   Overcast
6:55 AM 55.4 °F 55.4 °F 100% 29.98 in 5.0 mi Calm Calm - N/A   Overcast
7:15 AM 55.4 °F 55.4 °F 100% 29.99 in 4.0 mi Calm Calm - N/A   Overcast
7:35 AM 57.2 °F 57.2 °F 100% 29.99 in 5.0 mi Calm Calm - N/A   Overcast
7:55 AM 55.4 °F 55.4 °F 100% 29.99 in 2.0 mi Calm Calm - N/A   Overcast
8:15 AM 55.4 °F 55.4 °F 100% 30.00 in 3.0 mi Calm Calm - N/A   Overcast
9:15 AM 55.4 °F 55.4 °F 100% 30.01 in 3.0 mi Calm Calm - N/A   Overcast
9:35 AM 57.2 °F 57.2 °F 100% 30.01 in 4.0 mi East 3.5 mph - N/A   Overcast
9:55 AM 59.0 °F 59.0 °F 100% 30.01 in 5.0 mi East 4.6 mph - N/A   Overcast
10:15 AM 59.0 °F 59.0 °F 100% 30.01 in 7.0 mi North 4.6 mph - N/A   Overcast
10:35 AM 60.8 °F 59.0 °F 94% 30.02 in 7.0 mi Calm Calm - N/A   Overcast
10:55 AM 60.8 °F 59.0 °F 94% 30.03 in 10.0 mi Calm Calm - N/A   Overcast
11:15 AM 60.8 °F 57.2 °F 88% 30.02 in 10.0 mi Calm Calm - N/A   Overcast
11:35 AM 62.6 °F 57.2 °F 82% 30.02 in 10.0 mi Calm Calm - N/A   Overcast
11:55 AM 62.6 °F 59.0 °F 88% 30.02 in 10.0 mi East 3.5 mph - N/A   Overcast
12:15 PM 64.4 °F 59.0 °F 83% 30.01 in 10.0 mi East 4.6 mph - N/A   Overcast
12:35 PM 66.2 °F 59.0 °F 78% 30.00 in 10.0 mi East 4.6 mph - N/A   Overcast
12:55 PM 68.0 °F 59.0 °F 73% 30.00 in 10.0 mi SSE 6.9 mph - N/A   Mostly Cloudy
1:15 PM 68.0 °F 59.0 °F 73% 30.00 in 10.0 mi Calm Calm - N/A   Mostly Cloudy
1:35 PM 68.0 °F 59.0 °F 73% 29.99 in 10.0 mi East 4.6 mph - N/A   Mostly Cloudy
1:55 PM 69.8 °F 59.0 °F 68% 29.98 in 10.0 mi Calm Calm - N/A   Mostly Cloudy
2:15 PM 69.8 °F 59.0 °F 68% 29.97 in 7.0 mi SE 4.6 mph - N/A   Mostly Cloudy
2:35 PM 69.8 °F 60.8 °F 73% 29.96 in 7.0 mi SSE 5.8 mph - N/A   Mostly Cloudy
2:55 PM 69.8 °F 60.8 °F 73% 29.95 in 10.0 mi South 3.5 mph - N/A   Overcast
3:15 PM 69.8 °F 59.0 °F 68% 29.94 in 10.0 mi SW 4.6 mph - N/A   Scattered Clouds
3:35 PM 69.8 °F 60.8 °F 73% 29.93 in 10.0 mi SW 3.5 mph - N/A   Mostly Cloudy
4:15 PM 71.6 °F 59.0 °F 64% 29.91 in 10.0 mi SSE 3.5 mph - N/A   Scattered Clouds
4:35 PM 69.8 °F 59.0 °F 68% 29.91 in 10.0 mi Calm Calm - N/A   Scattered Clouds
4:55 PM 71.6 °F 60.8 °F 69% 29.90 in 10.0 mi SW 4.6 mph - N/A   Scattered Clouds
5:15 PM 69.8 °F 59.0 °F 68% 29.90 in 10.0 mi SW 3.5 mph - N/A   Scattered Clouds
5:35 PM 69.8 °F 59.0 °F 68% 29.90 in 10.0 mi South 3.5 mph - N/A   Overcast
6:15 PM 69.8 °F 60.8 °F 73% 29.88 in 10.0 mi SW 3.5 mph - N/A   Mostly Cloudy
6:35 PM 71.6 °F 60.8 °F 69% 29.88 in 10.0 mi SW 5.8 mph - N/A   Scattered Clouds
6:55 PM 69.8 °F 60.8 °F 73% 29.87 in 10.0 mi SW 4.6 mph - N/A   Clear
7:15 PM 69.8 °F 60.8 °F 73% 29.87 in 10.0 mi SW 3.5 mph - N/A   Clear
7:35 PM 68.0 °F 60.8 °F 78% 29.87 in 10.0 mi Calm Calm - N/A   Clear
7:55 PM 68.0 °F 60.8 °F 78% 29.87 in 10.0 mi Calm Calm - N/A   Mostly Cloudy
8:15 PM 68.0 °F 60.8 °F 78% 29.87 in 10.0 mi Calm Calm - N/A   Mostly Cloudy
8:35 PM 66.2 °F 60.8 °F 83% 29.87 in 10.0 mi Calm Calm - N/A   Mostly Cloudy
8:55 PM 64.4 °F 60.8 °F 88% 29.87 in 10.0 mi Calm Calm - N/A   Mostly Cloudy
9:15 PM 64.4 °F 62.6 °F 94% 29.87 in 10.0 mi Calm Calm - N/A   Overcast
9:35 PM 64.4 °F 62.6 °F 94% 29.87 in 10.0 mi Calm Calm - N/A   Overcast
10:15 PM 64.4 °F 62.6 °F 94% 29.88 in 10.0 mi Calm Calm - N/A   Overcast
10:35 PM 64.4 °F 62.6 °F 94% 29.88 in 10.0 mi Calm Calm - N/A   Overcast
10:55 PM 64.4 °F 62.6 °F 94% 29.88 in 10.0 mi Calm Calm - N/A   Overcast
11:15 PM 62.6 °F 62.6 °F 100% 29.88 in 10.0 mi Calm Calm - N/A   Overcast
11:35 PM 62.6 °F 62.6 °F 100% 29.88 in 10.0 mi Calm Calm - N/A   Overcast